Hourly Data Report for March 22, 2017

All times are specified in Local Standard Time (LST). Add 1 hour to adjust for Daylight Saving Time where and when it is observed.

TORONTO CITY
ONTARIO

43°40'00.000" N
79°24'00.000" W
112.50 m
6158355
71508
XTO

Download Data

Hourly Data (March 2017)
Hourly Data Report for March 22, 2017
TIME Temp Definition
°C
Dew Point Definition
°C
Rel Hum Definition
%
Wind Dir Definition
10's deg

Wind Spd Definition
km/h
Visibility Definition
km
Stn Press Definition
kPa
Hmdx Definition


Wind Chill Definition


Weather Definition


00:00 -1.3 -11.3 46 LegendMM LegendMM   100.60     LegendNANA
01:00 -2.7 -12.6 46 LegendMM LegendMM   100.74     LegendNANA
02:00 -4.4 -14.6 45 LegendMM LegendMM   100.91     LegendNANA
03:00 -5.5 -16.6 41 LegendMM LegendMM   101.04     LegendNANA
04:00 -6.3 -18.3 38 LegendMM LegendMM   101.19     LegendNANA
05:00 -6.8 -17.9 41 LegendMM LegendMM   101.32     LegendNANA
06:00 -7.5 -18.9 40 LegendMM LegendMM   101.47     LegendNANA
07:00 -8.2 -19.7 39 LegendMM LegendMM   101.61     LegendNANA
08:00 -7.7 -20.3 36 LegendMM LegendMM   101.72     LegendNANA
09:00 -7.3 -22.5 28 LegendMM LegendMM   101.81     LegendNANA
10:00 -6.2 -21.1 30 LegendMM LegendMM   101.92     LegendNANA
11:00 -5.2 -17.5 37 LegendMM LegendMM   101.90     LegendNANA
12:00 -3.8 -17.5 34 LegendMM LegendMM   101.94     LegendNANA
13:00 -3.6 -18.4 31 LegendMM LegendMM   101.96     LegendNANA
14:00 -2.9 -16.9 33 LegendMM LegendMM   101.90     LegendNANA
15:00 -2.4 -17.4 30 LegendMM LegendMM   101.88     LegendNANA
16:00 -2.1 -16.8 31 LegendMM LegendMM   101.90     LegendNANA
17:00 -2.3 -16.0 34 LegendMM LegendMM   101.91     LegendNANA
18:00 -2.7 -14.3 40 LegendMM LegendMM   101.91     LegendNANA
19:00 -3.4 -13.7 45 LegendMM LegendMM   101.94     LegendNANA
20:00 -4.0 -12.9 50 LegendMM LegendMM   101.98     LegendNANA
21:00 -4.9 -12.6 55 LegendMM LegendMM   102.02     LegendNANA
22:00 -5.4 -11.4 63 LegendMM LegendMM   102.03     LegendNANA
23:00 -5.5 -11.2 64 LegendMM LegendMM   102.03     LegendNANA

Notes on Data Quality.

Legend

  • E = Estimated
  • M = Missing
  • NA = Not Available
Date modified: